Pierre, SD

7:34 PM CST on November 20, 2019 (GMT -0600)
Pierre Regional

Weather History for KPIR - October, 2019

Change the Weather History Date:

Sunday, October 20, 2019

  Actual Average Record
Temperature  
Mean Temperature 47 °F 47 °F  
Max Temperature 55 °F 59 °F 92 °F (1947)
Min Temperature 38 °F 35 °F 19 °F (2011)
Degree Days  
Heating Degree Days 18    
Month to date heating degree days 388  
Since 1 July heating degree days 485  
Cooling Degree Days 0    
Month to date cooling degree days 0  
Year to date cooling degree days 651  
Moisture  
Dew Point 41 °F    
Average Humidity 79    
Maximum Humidity 93    
Minimum Humidity 64    
Precipitation  
Precipitation 0.25 in 0.05 in 2.20 in (1906)
Month to date precipitation 1.08 1.21  
Year to date precipitation 28.50 18.26  
Snow  
Snow 0.00 in 0.10 in 0.60 in (1898)
Month to date snowfall 5.3 0.4  
Since 1 July snowfall 5.3 0.4  
Snow Depth 0.00 in    
Sea Level Pressure  
Sea Level Pressure 29.54 in    
Wind  
Wind Speed 14 mph (East)    
Max Wind Speed 40 mph    
Max Gust Speed 55 mph    
Visibility 10 miles    
Events Rain    
T = Trace of Precipitation, MM = Missing Value Source: NWS Daily Summary

Daily Weather History Graph

Daily Weather History Graph

Search for Another Location

Airport or City:

Astronomy

Oct. 20, 2019 Rise Set
Actual Time 8:02 AM CDT 6:48 PM CDT
Civil Twilight 7:32 AM CDT 7:18 PM CDT
Nautical Twilight 6:59 AM CDT 7:52 PM CDT
Astronomical Twilight 6:25 AM CDT 8:25 PM CDT
Moon 11:50 PM CDT (10/20) 2:41 PM CDT (10/20)
Length of Visible Light 11h 45m
Length of Day
10h 46m
Waning Gibbous, 59% of the Moon is Illuminated
Oct 20
Waning Gibbous
Oct 21
Last Quarter
Oct 27
New
Nov 4
First Quarter
Nov 12
Full

Hourly Weather History & Observations

Time (CDT) Temp. Windchill Dew Point Humidity Pressure Visibility Wind Dir Wind Speed Gust Speed Precip Events Conditions
12:53 AM 39.0 °F 36.8 °F 30.9 °F 73% 29.66 in 10.0 mi East 3.5 mph - N/A   Clear
1:53 AM 43.0 °F 36.8 °F 35.1 °F 74% 29.64 in 10.0 mi ESE 11.5 mph - N/A   Clear
2:53 AM 45.0 °F 38.9 °F 35.1 °F 68% 29.62 in 10.0 mi ESE 12.7 mph - N/A   Clear
3:53 AM 44.1 °F 37.4 °F 34.0 °F 68% 29.61 in 10.0 mi East 13.8 mph - N/A   Clear
4:53 AM 46.0 °F 41.9 °F 35.1 °F 66% 29.58 in 10.0 mi East 8.1 mph - N/A   Mostly Cloudy
5:53 AM 45.0 °F 40.1 °F 35.1 °F 68% 29.59 in 10.0 mi ENE 9.2 mph - N/A   Overcast
6:53 AM 46.9 °F - 35.1 °F 63% 29.60 in 10.0 mi ESE 8.1 mph - N/A   Overcast
7:53 AM 46.0 °F 43.9 °F 37.9 °F 73% 29.62 in 10.0 mi SE 4.6 mph - N/A   Overcast
8:53 AM 46.9 °F - 41.0 °F 80% 29.62 in 9.0 mi SE 12.7 mph - 0.03 in Rain Rain
9:53 AM 46.0 °F 39.0 °F 42.1 °F 86% 29.60 in 10.0 mi East 17.3 mph - 0.02 in Rain Light Rain
10:53 AM 48.9 °F - 44.1 °F 83% 29.55 in 10.0 mi East 19.6 mph 32.2 mph 0.01 in   Overcast
11:53 AM 52.0 °F - 43.0 °F 71% 29.51 in 10.0 mi ESE 31.1 mph 43.7 mph N/A   Overcast
12:53 PM 51.1 °F - 42.1 °F 71% 29.49 in 10.0 mi ESE 28.8 mph 46.0 mph N/A   Overcast
1:53 PM 50.0 °F - 43.0 °F 77% 29.47 in 10.0 mi ESE 28.8 mph 40.3 mph 0.00 in Rain Light Rain
2:53 PM 54.0 °F - 43.0 °F 66% 29.46 in 10.0 mi ESE 19.6 mph 29.9 mph 0.00 in   Overcast
3:53 PM 54.0 °F - 41.0 °F 62% 29.46 in 10.0 mi SE 23.0 mph 36.8 mph N/A   Overcast
4:53 PM 54.0 °F - 43.0 °F 66% 29.47 in 10.0 mi SE 23.0 mph 33.4 mph N/A   Partly Cloudy
5:53 PM 53.1 °F - 44.1 °F 71% 29.48 in 10.0 mi SE 15.0 mph - N/A   Mostly Cloudy
6:53 PM 51.1 °F - 46.0 °F 83% 29.49 in 10.0 mi ESE 12.7 mph 21.9 mph N/A   Mostly Cloudy
7:53 PM 50.0 °F - 46.0 °F 86% 29.49 in 10.0 mi NE 11.5 mph - 0.00 in Rain Light Rain
8:53 PM 48.0 °F - 46.0 °F 93% 29.50 in 9.0 mi East 5.8 mph - 0.01 in Rain Rain
9:53 PM 46.9 °F - 45.0 °F 93% 29.49 in 10.0 mi ENE 9.2 mph - 0.01 in   Overcast
10:53 PM 46.0 °F 43.9 °F 45.0 °F 96% 29.48 in 9.0 mi NNE 4.6 mph - 0.01 in Rain Light Rain
11:53 PM 46.0 °F 44.8 °F 45.0 °F 96% 29.47 in 8.0 mi North 3.5 mph - 0.02 in Rain Light Rain